Showing default

LOGSATS, 62689

Orbit data source: Space-Track

LOGSATS, 62689 is a payload satellite owned by Patriot Info (TH) in SSO that was launched on Tue, 14 Jan 2025 UTC via an FALCON 9 launch vehicle from the Air Force Western Test Range (AFWTR). Payload-class satellites include a variety of spacecraft equipped with specific instruments for various scientific and technological missions. These include communications satellites like Starlink; space stations such as the ISS; scientific satellites like the Hubble; Earth observation satellites from companies like Planet Labs, Umbra, and HawkEye 360; GPS; miniature CubeSats for education and research; and military/defense satellites.

Loading next visibility...
Identifier
62689, 2025-009CJ
Orbit
SSO
Country
Flag of UnknownUnknown / THAI
Related business
None
Manufacturer
Patriot Info
Mission
Operational Commercial Communications
Bus & Motor
CUBESAT 3U, Unknown motor
Mass
5 kg wet, 5 kg dry
Launch date (UTC)
2025-01-14 (1 year ago)
Launch vehicle
FALCON 9
Launch site
Air Force Western Test Range (AFWTR)
Object type
Payload
Rocket body
Debris
Shape & HBR
Box + 2 Pan, 0.2 m
Radar Cross Section
0.035 m², Small (<0.1 m²)

Expand to show TLE details & history
Last TLE update: 8 hours ago

TLE from 8 hours ago
0 LOGSATS
1 62689U 25009CJ  26034.19078960  .00140355  00000-0  17948-2 0  9991
2 62689  97.4007 122.6195 0001897   4.2445 355.8827 15.58748033 58814
Epoch: 2026-02-03T04:34Z
TLE epoch observation values (Epoch: 2026-02-03T04:34:44.221Z)
Latitude
-0°
Longitude
-79.44003°
Altitude
393.141 km
Speed
7.675 km/s
True Right ascension
08h 10m 28s
True Declination
0° 00' 00"
Sunlit
Object was in full shadow at epoch
Visualization orbit readout
Latitude
Unknown
Longitude
Unknown
Altitude
Unknown
Speed
Unknown
Apparent Right ascension
Unknown
Apparent Declination
Unknown
Sunlit
N/A
Visualization observer readout
Local Sidereal Time
14:57:45
Azimuth
Unknown
Elevation
Unknown
Doppler factor
Unknown
Orbital elements
Apogee altitude
389.477 km
Perigee altitude
386.91 km
Semi-major axis
6,766.331 km
Eccentricity
0.00019
Inclination
97.4007°
RAAN
122.6195°
Arg. of periapsis
4.2445°
True anomaly
355.88114°
Mean anomaly
355.8827°
Eccentric anomaly
355.88192°
Mean motion
3.89954 °/min
Orbital period
92.32 mins
BSTAR
0.0017948
Loading maneuver chart data...
Computing Atmospheric mass density...
Loading historical data...
Loading historical data...
Loading historical data...
Loading historical data...
Loading historical data...
Loading historical data...
Loading historical data...

Documentation

Showing up to 5 results
|